User: anonymous   Login
Location: Key Biscayne
(25.6930°N, 80.1630°W)
Time: 06:17:50
(UTC-05:00)
Language:

N. Korean satellite - Orbit

View from above orbital plane
View from above orbital plane
View from above satellite
View from above satellite

Ground track
Ground track

The orbit data is extracted from the following two-line orbital elements,

1 39026U 12072A   17329.08441407  .00002265  00000-0  88733-4 0  9990
2 39026  97.2176 341.4287 0039010 329.4113  30.4850 15.26114453274521
Epoch (UTC): 25 November 2017 02:01:33
Eccentricity: 0.0039010
inclination: 97.2176°
perigee height: 460 km
apogee height: 514 km
right ascension of ascending node: 341.4287°
argument of perigee: 329.4113°
revolutions per day: 15.26114453
mean anomaly at epoch: 30.4850°
orbit number at epoch: 27452

The dashed part of the orbit path shows where the satellite is in the earth's shadow,  

DLR